Regional Weather Roundup
Issued by NWS Cleveland, OH

Home | Current Version | Previous Version | Graphics & Text | Print | Product List | Glossary On
Versions: 1 2 3 4 5 6 7 8 9 10 11 12 13 14 15 16 17 18 19 20 21 22 23 24 25 26 27 28 29 30 31 32 33 34 35 36 37 38 39 40 41 42 43 44 45 46 47 48 49 50
695
ASUS41 KCLE 231910
RWRCLE
OHIO REGIONAL WEATHER ROUNDUP
NATIONAL WEATHER SERVICE WILMINGTON, OH
300 PM EDT FRI JUN 23 2017

NOTE: "FAIR" INDICATES FEW OR NO CLOUDS BELOW 12,000 FEET WITH NO
SIGNIFICANT WEATHER AND/OR OBSTRUCTIONS TO VISIBILITY.

OHZ001>008-015>018-024>027-034-035-043-044-232000-
   NORTHWEST OHIO

CITY           SKY/WX    TMP DP  RH WIND       PRES   REMARKS
DEFIANCE       CLOUDY    72  67  84 S12       29.66F
FINDLAY        PTSUNNY   71  67  87 SW9       29.65F
TOLEDO EXPRESS FAIR      75  70  84 SW15G22   29.63S
TOLEDO EXEC    PTSUNNY   76  71  85 SW16G24   29.64S
LIMA           LGT RAIN  68  67  96 SW12      29.69R
$$

OHZ009>014-019>023-028>033-038-089-232000-
   NORTHEAST OHIO

CITY           SKY/WX    TMP DP  RH WIND       PRES   REMARKS
CLE-HOPKINS    PTSUNNY   74  70  87 SW12      29.64S
CLE-LAKEFRONT  PTSUNNY   74  69  85 SW12      29.61R
CUY CO. ARPT   CLOUDY    75  70  83 SW16      29.63R
LORAIN-ELYRIA  PTSUNNY   72  65  78 W15       29.64R
ASHTABULA      CLOUDY    74  72  93 SW12      29.62S
AKRON-CANTON   LGT RAIN  71  67  87 W12       29.68F
WOOSTER        LGT RAIN  70  68  93 SW15      29.68F
MANSFIELD      LGT RAIN  70  69  97 SW10      29.67F
YOUNGSTOWN     LGT RAIN  70  68  93 SW10      29.67S
$$

OHZ042-051>053-060>062-070>072-077>081-232000-
  SOUTHWEST OHIO

CITY           SKY/WX    TMP DP  RH WIND       PRES   REMARKS
CINC-COVINGTON HVY RAIN  73  72  96 NW10      29.74F FOG
CINC-LUNKEN    HVY RAIN  73  72  96 W10       29.74S FOG
HAMILTON       LGT RAIN  73  72  96 W10       29.75R FOG
DAYTON         HVY RAIN  67  67 100 S8        29.74F FOG
WRIGHT-PAT AFB LGT RAIN  68  68 100 SE7       29.73F FOG
DAYTON GENERAL HVY RAIN  68  66  93 N9        29.75R VSB 1
WILMINGTON     HVY RAIN  71  71 100 W14G28    29.74F VSB 1
$$

OHZ036-037-039>041-045>050-054>059-063>069-073>076-082>088-232000-
  CENTRAL AND SOUTHEAST OHIO

CITY           SKY/WX    TMP DP  RH WIND       PRES   REMARKS
COLUMBUS       LGT RAIN  72  70  93 SW13      29.71R
OSU AIRPORT    LGT RAIN  71  70  96 SW14      29.72S
BOLTON FIELD   LGT RAIN  70  70 100 SW13      29.76R
RICKENBACK AFB HVY RAIN  69  68  99 W9        29.74R
NEWARK         LGT RAIN  73  71  93 W13       29.70F
MARION         LGT RAIN  71  68  90 SW9       29.67F
LANCASTER      RAIN      69  68  96 W10       29.75R FOG
ZANESVILLE     CLOUDY    79  72  79 W5        29.70F
NEW PHILLY     LGT RAIN  71  68  90 VRB7      29.72S
$$




USA.gov is the U.S. government's official web portal to all federal, state and local government web resources and services.